Regional Weather Roundup
Issued by NWS Kansas City/Pleasant Hill, MO

Home | Current Version | Previous Version | Text Only | Print | Product List | Glossary On
Versions: 1 2 3 4 5 6 7 8 9 10 11 12 13 14 15 16 17 18 19 20 21 22 23 24 25 26 27
000
ASUS43 KEAX 262310
RWREAX

WEATHER ROUNDUP FOR EASTERN KANSAS AND NORTHWEST MISSOURI
NATIONAL WEATHER SERVICE KANSAS CITY/PLEASANT HILL MO
600 PM CDT THU APR 26 2018

KSZ040-057-103>105-MOZ028-029-037-043-270000-
...KANSAS CITY METROPOLITAN AREA...

CITY           SKY/WX    TMP DP  RH WIND       PRES   REMARKS
K.C. INTL      PTSUNNY   67  43  41 W12G20    29.94S
K.C. DOWNTOWN  MOSUNNY   68  46  45 W12       29.93S
LEES SUMMIT    MOSUNNY   67  43  41 NW13      29.95R
OLATHE - IXD   MOSUNNY   67  46  47 NW7       29.96S
OLATHE - OJC   MOSUNNY   66  47  50 N9        29.95S
LAWRENCE       SUNNY     70  42  36 NW13      29.95F

$$

MOZ001>008-011>017-020>025-030>033-038>040-044>046-053-054-270000-
...NORTHERN AND CENTRAL MISSOURI...

CITY           SKY/WX    TMP DP  RH WIND       PRES   REMARKS
ST. JOSEPH     MOSUNNY   69  40  34 NW10      29.94S
MOSBY          CLEAR     68  39  34 W9G16     29.93S
WARRENSBURG    MOSUNNY   68  41  37 W10       29.94R
WHITEMAN AFB   PTSUNNY   67  45  46 W6        29.90R
CLINTON        PTSUNNY   66  48  52 NW6       29.95S
SEDALIA        MOSUNNY   68  46  45 W10       29.94S
WARSAW         NOT AVBL
CHILLICOTHE      N/A     71  38  29 NW8G18    29.92S
KIRKSVILLE     MOSUNNY   69  34  27 VRB7      29.90S

$$

MOZ041-047>049-056>058-063>065-088>090-097-270000-
...EASTERN AND SOUTHERN MISSOURI...

CITY           SKY/WX    TMP DP  RH WIND       PRES   REMARKS
ST. LOUIS INTL PTSUNNY   70  41  34 VRB7      29.89S
SPIRIT OF STL  CLOUDY    70  42  36 NW9G17    29.88S
COLUMBIA       CLOUDY    68  39  34 W10       29.91S
JEFFERSON CITY CLOUDY    69  39  33 NW6       29.90F
ROLLA          CLOUDY    64  45  49 W6        29.93S
OSAGE BEACH    CLOUDY    67  46  47 N5        29.93F
SPRINGFIELD    CLOUDY    62  47  57 NW3       29.95F
BRANSON        PTSUNNY   61  46  59 W3        29.98S
JOPLIN         MOSUNNY   62  49  62 W8        29.99R
WEST PLAINS    CLOUDY    64  46  52 N3        29.94R

$$

IAZ060-094-KSZ022-034>040-054-083-096-NEZ052-066-093-270000-
...KANSAS...SOUTHEAST NEBRASKA AND IOWA...

CITY           SKY/WX    TMP DP  RH WIND       PRES   REMARKS
TOPEKA         SUNNY     70  40  33 NW7       29.95F
MANHATTAN      SUNNY     72  44  36 VRB7      29.96F
EMPORIA        MOSUNNY   66  40  38 NW8       29.97S
CHANUTE        MOSUNNY   67  48  50 VRB5      29.98S
WICHITA        PTSUNNY   66  44  45 NW9       30.00S
OMAHA          MOSUNNY   68  32  26 N26G35    29.96R
LINCOLN        SUNNY     68  31  25 N24G36    30.00R
FALLS CITY     MOSUNNY   69  44  40 NW15      29.93R
LAMONI         MOSUNNY   66  35  31 W13       29.91S
DES MOINES     MOSUNNY   72  40  31 NW18      29.87S

$$





USA.gov is the U.S. government's official web portal to all federal, state and local government web resources and services.